EW6281 Weather Reports


Display with metric or nautical units.
time (UTC)temp
F
wind
direction
speed
MPH
gust
MPH
rain 1hr
in
rain 24hr
in
rain mn
in
humidity
%
barometer
mb
20260508030105 42 0 0.0 0.0 0.00 0.00 0.00 89 1016.3
20260508024604 42 0 0.0 0.0 0.00 0.00 0.00 89 1016.3
20260508023055 42 0 0.0 0.0 0.00 0.00 0.00 89 1016.4
20260508021557 43 0 0.0 0.0 0.00 0.00 0.00 89 1016.3
20260508020106 43 0 0.0 0.0 0.00 0.00 0.00 89 1016.2
20260508014615 44 0 0.0 4.0 0.00 0.00 0.00 89 1016.3
20260508013059 44 0 0.0 4.0 0.00 0.00 0.00 89 1016.1
20260508011559 45 164 0.0 1.0 0.00 0.00 0.00 89 1016.2
20260508010057 45 0 0.0 0.0 0.00 0.00 0.00 89 1016.2
20260508004556 45 0 0.0 0.0 0.00 0.00 0.00 89 1016.1
20260508003055 45 0 0.0 0.0 0.00 0.00 0.00 88 1016.0
20260508001556 45 0 0.0 0.0 0.00 0.00 0.00 88 1016.2
20260508000055 45 0 0.0 1.0 0.00 0.00 0.00 88 1016.5
20260507234559 45 0 0.0 1.0 0.00 0.00 0.00 88 1016.5
20260507233054 45 0 0.0 0.0 0.00 0.00 0.00 88 1016.5
20260507231556 45 0 0.0 0.0 0.00 0.00 0.00 88 1016.6
20260507230106 45 0 0.0 1.0 0.00 0.00 0.00 87 1016.5
20260507224556 45 0 0.0 0.0 0.00 0.00 0.00 87 1016.6
20260507223057 45 0 0.0 1.0 0.00 0.00 0.00 87 1016.7
20260507221555 44 0 0.0 0.0 0.00 0.00 0.00 86 1016.7
20260507220056 44 0 0.0 5.0 0.00 0.00 0.00 85 1016.8
20260507214556 44 0 0.0 1.0 0.00 0.00 0.00 85 1016.7
20260507213057 45 0 0.0 0.0 0.00 0.00 0.00 84 1016.8
20260507211556 45 0 0.0 0.0 0.00 0.00 0.00 84 1016.6
20260507210103 46 0 0.0 0.0 0.00 0.00 0.00 83 1016.6
20260507204551 46 0 0.0 0.0 0.00 0.00 0.00 82 1016.6
20260507203100 47 0 0.0 0.0 0.00 0.00 0.00 81 1016.3
20260507201554 47 0 0.0 0.0 0.00 0.00 0.00 79 1016.3
20260507200053 48 0 0.0 0.0 0.00 0.00 0.00 78 1016.1
20260507194554 49 0 0.0 1.0 0.00 0.00 0.00 78 1015.9
20260507193056 50 298 0.0 2.0 0.00 0.00 0.00 76 1015.9
20260507191554 51 0 0.0 4.0 0.00 0.00 0.00 76 1015.9
20260507190051 51 184 0.0 9.0 0.00 0.00 0.00 75 1015.8
20260507184554 52 0 0.0 3.0 0.00 0.00 0.00 74 1015.9
20260507183056 52 0 0.0 6.0 0.00 0.00 0.00 73 1015.8
20260507181553 53 0 0.0 5.0 0.00 0.00 0.00 72 1015.6
20260507180101 53 0 0.0 4.0 0.00 0.00 0.00 71 1015.6
20260507174605 54 0 0.0 5.0 0.00 0.00 0.00 69 1015.4
20260507173057 55 0 0.0 4.0 0.00 0.00 0.00 69 1015.3
20260507171604 54 0 0.0 3.0 0.00 0.00 0.00 71 1015.1
20260507170055 54 0 0.0 5.0 0.00 0.00 0.00 69 1015.4
20260507164556 55 0 0.0 2.0 0.00 0.00 0.00 70 1015.3
20260507163054 55 289 0.0 3.0 0.00 0.00 0.00 69 1015.3
20260507161557 55 0 0.0 3.0 0.00 0.00 0.00 68 1015.3
20260507160056 55 130 0.0 4.0 0.00 0.00 0.00 69 1015.4
20260507154553 56 130 1.0 4.0 0.00 0.00 0.00 70 1015.5
20260507153101 55 51 0.0 2.0 0.00 0.00 0.00 70 1015.4
20260507151552 54 12 1.0 4.0 0.00 0.00 0.00 69 1015.6
20260507150053 55 0 1.0 9.0 0.00 0.00 0.00 68 1015.6
20260507144556 56 0 1.0 8.0 0.00 0.00 0.00 67 1015.6
20260507143056 58 0 1.0 8.0 0.00 0.00 0.00 66 1015.7
20260507141553 58 32 1.0 5.0 0.00 0.00 0.00 67 1015.6
20260507140105 57 129 1.0 11.0 0.00 0.00 0.00 69 1015.7
20260507134552 56 0 1.0 4.0 0.00 0.00 0.00 71 1015.9
20260507133101 53 49 0.0 2.0 0.00 0.00 0.00 75 1015.9
20260507131554 51 0 0.0 1.0 0.00 0.00 0.00 74 1016.0
20260507130108 51 0 0.0 1.0 0.00 0.00 0.00 76 1016.0
20260507124633 50 0 0.0 0.0 0.00 0.00 0.00 75 1016.1
20260507123056 50 0 0.0 0.0 0.00 0.00 0.00 75 1016.2
20260507121554 51 0 0.0 1.0 0.00 0.00 0.00 75 1016.2
20260507120057 51 355 0.0 2.0 0.00 0.00 0.00 75 1016.3
20260507114610 50 0 0.0 0.0 0.00 0.00 0.00 75 1016.5
20260507113057 50 0 0.0 2.0 0.00 0.00 0.00 75 1016.4
20260507111553 50 0 0.0 3.0 0.00 0.00 0.00 75 1016.4
20260507110059 51 0 0.0 0.0 0.00 0.00 0.00 76 1016.5
20260507104558 51 0 0.0 2.0 0.00 0.00 0.00 75 1016.4
20260507103058 51 0 0.0 2.0 0.00 0.00 0.00 74 1016.4
20260507101557 52 0 0.0 4.0 0.00 0.00 0.00 72 1016.4
20260507100058 53 267 0.0 3.0 0.00 0.00 0.00 67 1016.4
20260507094555 55 306 0.0 3.0 0.00 0.00 0.00 67 1016.4
20260507093054 57 0 0.0 9.0 0.00 0.00 0.00 64 1016.4
20260507091554 56 128 1.0 4.0 0.00 0.00 0.00 67 1016.2
20260507090051 55 0 0.0 7.0 0.00 0.00 0.00 68 1016.3
20260507084556 54 0 0.0 6.0 0.00 0.00 0.00 70 1016.2
20260507083057 54 217 1.0 6.0 0.00 0.00 0.00 71 1016.3
20260507081556 54 118 0.0 4.0 0.00 0.00 0.00 74 1016.2
20260507074607 49 0 0.0 0.0 0.00 0.00 0.00 84 1016.2
20260507073102 47 0 0.0 0.0 0.00 0.00 0.00 86 1016.2
20260507071555 46 0 0.0 0.0 0.00 0.00 0.00 88 1016.2
20260507070115 46 0 0.0 0.0 0.00 0.00 0.00 89 1016.1
20260507064605 45 0 0.0 0.0 0.00 0.00 0.00 90 1016.1
20260507063059 45 0 0.0 0.0 0.00 0.00 0.00 90 1016.1
20260507061558 44 0 0.0 0.0 0.00 0.00 0.00 91 1016.1
20260507060053 42 0 0.0 0.0 0.00 0.00 0.00 90 1016.0
20260507054554 41 0 0.0 0.0 0.00 0.00 0.00 89 1015.9
20260507053053 41 0 0.0 0.0 0.00 0.00 0.00 89 1015.8
20260507051558 41 0 0.0 0.0 0.00 0.00 0.00 89 1015.8
20260507044554 42 0 0.0 0.0 0.00 0.00 0.00 88 1015.4
20260507043057 42 0 0.0 0.0 0.00 0.00 0.00 88 1015.4
20260507041555 43 0 0.0 0.0 0.00 0.00 0.00 88 1015.5
20260507040110 44 0 0.0 0.0 0.00 0.00 0.00 89 1015.3
20260507034559 44 0 0.0 0.0 0.00 0.00 0.00 89 1015.3
20260507033102 44 0 0.0 0.0 0.00 0.00 0.00 89 1015.2
20260507031604 44 0 0.0 0.0 0.00 0.00 0.00 89 1015.3